Погода в Балхаше

Погода в Балхаше : погода сейчас, прогноз погоды и архив. Всё, что Вы хотите узнать о погоде в Балхаше!

Хотите узнать прогноз погоды в Балхаше? Тогда Вам сюда: Погода в Балхаше

Поиск расширенной информации на нашем сайте:

Другие новости

Новости СМИ2

Главная страница сайта

Новости сайта

03.07.2017

Напоминаем, что на нашем специализированном сайте Метеоцентр.Азия вы можете получить высокодетализированные автоматические прогнозы погоды по пунктам России, СНГ и мира в авиационном формате (включающие направление и скорость ветра, видимость, явления погоды, количество и форму облачности, нижнюю и верхнюю границу облачности).


Погода в Балхаше - сегодня

Время (UTC), дата Ветер
(°,м/с) 
Видим.   Явления Облачность Т
(°С)
Тd
(°С)
f(%) Тe
(°С)
Pmin
(гПа)
dP
(гПа)
Po
(мм)
O2
(г/м3)
Тmin Tmax R s Состояние
почвы
21 18.09.17 270 (З) 10 км    ясно 
+17.6 +4 40 +18  1014  -0.7  730  276           
00 19.09.17 320 (СЗ) 10 км    ясно 
+16.4 +2.1 38 +16  1015.2  0.9  731  277           
03 19.09.17 360 (С) 20000 м    8/0 верхняя 
[Ci fib]
+18.2 +7.3 49 +18  1016.9  1.8  732  275           
06 19.09.17 020 (С) 20000 м    8/0 верхняя 
[Ci fib]
+22.6 +4.9 32 +23  1017.6  1.4  733  272  +11         
09 19.09.17 360 (С) 20000 м    4/0 верхняя 
[Ci fib]
+24.5 -7.5 11 +25  1017.1  -0.3  733  272           
12 19.09.17 360 (С) 10 км    8/0 верхняя 
[Cc]
+24.2 -4.4 15 +24  1018  0.8  734  272           
15 19.09.17 340 (С) 10 км    4/0 верхняя 
[Ci sp]
+18.7 -3.8 21 +19  1021.3  2.5  735  278    +25.4       
18 19.09.17 020 (С) 10 км    ясно 
+13.8 -2.1 33 +13  1023.4  1.3  736  283    +25.4       
21 19.09.17 050 (СВ) 10 км    ясно 
+11.5 +0.2 46 +11  1024.4  0.7  737  285           
00 20.09.17 050 (СВ) 10 км    3/0 верхняя 
[Ci fib]
+8.7 +0.6 57 +8  1026.1  1.2  738  288           
03 20.09.17 050 (СВ) 20000 м    ясно 
+12 +1.2 48 +11  1026.8  1.2  739  285  +7.7        сухая 
06 20.09.17 070 (В) 20000 м    ясно 
+18.7 -1.4 26 +19  1025.6  -0.3  739  279  +7.7         
09 20.09.17 230 (ЮЗ) 20000 м    ясно 
+18.5 +7.1 47 +19  1023.6  -1.9  737  277           
12 20.09.17 230 (ЮЗ) 20000 м    ясно 
+17.9 +7.5 51 +19  1022.7  -0.9  736  277           
15 20.09.17 320 (СЗ) 10 км    ясно 
+15.5 +7.1 57 +17  1023  736  280    +20       
18 20.09.17 360 (С) 10 км    ясно 
+13 +2.1 47 +13  1022.1  -1.3  735  283    +20       
21 20.09.17 050 (СВ) 10 км    ясно 
+12.5 +1.6 47 +12  1021  -1.1  735  283           
00 21.09.17 050 (СВ) 10 км    ясно 
+11.1 +2.6 56 +11  1020.4  -0.8  734  284           
03 21.09.17 050 (СВ) 20000 м    ясно 
+13.9 +1.3 42 +13  1020  734  281           
06 21.09.17 200 (Ю) 20000 м    ясно 
+21.9 +7.4 39 +22  1017.2  -1.5  733  272  +10.6         
09 21.09.17 200 (Ю) 20000 м    ясно 
+21.9 +11.5 52 +26  1014.9  -2.2  731  271           
12 21.09.17 230 (ЮЗ) 20000 м    ясно 
+21.2 +12.1 56 +26  1013.8  -1.1  730  271           
15 21.09.17 270 (З) 10 км    ясно 
+18.9 +9.8 55 +21  1014.3  0.1  731  274    +23.5       
18 21.09.17 270 (З) 10 км    ясно 
+18.7 +5.3 41 +19  1013.4  -0.9  730  274    +23.5       
21 21.09.17 270 (З) 10 км    ясно 
+16.6 +3.9 43 +18  1012.8  -0.9  729  276           
Время (UTC), дата Ветер
(°,м/с) 
Видим.   Явления Облачность Т
(°С)
Тd
(°С)
f(%) Тe
(°С)
Pmin
(гПа)
dP
(гПа)
Po
(мм)
O2
(г/м3)
Тmin Tmax R s Состояние
почвы

Для получения пояснительной информации подведите курсор к названию столбца.

ПОГОДА в Балхаше - архив

Всё, что Вы хотите узнать о погоде в Балхаше - удобно и подробно!

Выберите нужную дату (начиная с 1 января 2015* года) и нажмите кнопку "Найти".
Будут отображены архивные сводки погоды по пункту Балхаш, начиная с указанной даты.


Отображать данные в формате CSV (для использования в таблицах Excel)


Внимание! Наш архив погоды предназначен исключительно для личного некоммерческого использования в познавательных целях. Если Вам необходимы официальные справки о состоянии погоды (для производственных, юридических, коммерческих и т.п. целей), обращайтесь в органы Росгидромета.

*Примечание: данная дата относится к архиву по метеостанциям СССР (Россия, СНГ, Балтия).
Архив по метеостанциям Зарубежной Европы и Азии (кроме Китая) хранится 10 дней, по другим регионам земного шара (Китай, Африка, Америка, Австралия, Океания) - 1 день.

Балхаш - район местоположения метеостанции


Название, широта, долгота, высота метеостанции:
Балхаш 46.8°ш. 75.1°д. 350 м над ур. моря [Казахстан]

Дополнительная информация

В oтличие oт бoльшинства пoгoдных сайтoв мы публикуем пoдрoбную метеoинфoрмацию в детальнoм прoфессиoнальнoм фoрмате.

Характеристики температуры и влажнoсти вoздуха измеряются на высoте 2 м в тени вдали oт зданий и деревьев.
Скoрoсть ветра измеряется на высoте 10 м (на урoвне рoста челoвека скoрoсть ветра ниже в 1.5-2 раза). Если метеoстанция нахoдится в гoрoде или в лесу, тo скoрoсть ветра занижена на 2-4 м/с пo сравнению с oткрытым местoм. Скoрoсть ветра над акватoриями крупных рек и oзёр, а также на вершинах хoлмoв на 2-5 м/с выше, чем в oбычных услoвиях.
Атмoсфернoе давление в разных тoчках местнoсти мoжет значительнo oтличаться oт давления на метеoстанции, в зависимoсти oт услoвий рельефа (при пoдъёме на 10 м давление пoнижается примернo на 1 мм рт.ст.).